METEOSAT-12 (MTG-I1)

Last updated on Thu Nov 21 2024 00:02:20 GMT+0000 (Coordinated Universal Time)

1 54743U 22170C 24325.25465987 -.00000006 00000+0 00000+0 0 9992 2 54743 0.6079 41.4326 0001310 185.3039 284.2919 1.00272020 7221
UTC large
Height (km)
Speed (km/s)
/
Latitude / Longitude
Inclination (degrees)
Orbital Period (minutes)
Azimuth
Elevation
Range (km)
Doppler Factor

Next 0 passes for location: London (51.5072 / 0.1276)

Sorry there are no passes over London.